Location: Burland Observatory
(39.4088°N, 105.4217°W)
Time: 11:03:51
(UTC-07:00)

SR - Pass Details

Date: 10 December 2019
Orbit: 574 x 882 km, 66.7° (Epoch: 26 January)

Event Time Altitude Azimuth Distance (km) Brightness Sun altitude
Rises 07:54:21 0° 162° (SSE) 3,186 ? 6.2°
Reaches altitude 10° 07:57:27 10° 142° (SE) 2,327 ? 6.7°
Maximum altitude 08:00:50 17° 103° (ESE) 1,941 ? 7.2°
Drops below altitude 10° 08:04:21 10° 64° (ENE) 2,450 ? 7.8°
Sets 08:07:42 0° 46° (NE) 3,432 ? 8.3°
